Location: Flotzheim
(48.8375°N, 10.8136°E)
Time: 04:14:48
(UTC+00:00)

PSLV R/B - Pass Details

Date: 23 January 2021
Orbit: 567 x 598 km, 98.2° (Epoch: 26 February)

Event Time Altitude Azimuth Distance (km) Brightness Sun altitude
Exits shadow 18:00:11 17° 16° (NNE) 1,545 5.9 -19.5°
Maximum altitude 18:03:26 86° 101° (E) 608 3.9 -20.0°
Drops below altitude 10° 18:07:38 10° 194° (SSW) 1,932 6.8 -20.7°
Sets 18:09:48 0° 195° (SSW) 2,827 7.7 -21.0°
